Roros Lufthavn, Norway

10:29 PM CET on December 06, 2019 (GMT +0100)
Roros

Weather History for ENRO - October, 2019

Change the Weather History Date:

Tuesday, October 29, 2019

  Actual Average Record
Temperature  
Mean Temperature 32 °F -  
Max Temperature 35 °F 34 °F 50 °F (2005)
Min Temperature 28 °F 27 °F -4 °F (2012)
Degree Days  
Heating Degree Days 32    
Moisture  
Dew Point 29 °F    
Average Humidity 91    
Maximum Humidity 100    
Minimum Humidity 81    
Precipitation  
Precipitation 0.00 in - - ()
Sea Level Pressure  
Sea Level Pressure 30.18 in    
Wind  
Wind Speed 8 mph ()    
Max Wind Speed 16 mph    
Max Gust Speed -    
Visibility 5.8 miles    
Events Rain , Snow    
Averages and records for this station are not official NWS values.
T = Trace of Precipitation, MM = Missing Value Source: Averaged Metar Reports

Daily Weather History Graph

Daily Weather History Graph

Search for Another Location

Airport or City:

Astronomy

Oct. 29, 2019 Rise Set
Actual Time 7:39 AM CET 4:16 PM CET
Civil Twilight 6:50 AM CET 5:05 PM CET
Nautical Twilight 5:56 AM CET 5:58 PM CET
Astronomical Twilight 5:04 AM CET 6:50 PM CET
Moon 9:06 AM CET (10/29) 5:08 PM CET (10/29)
Length of Visible Light 10h 15m
Length of Day
8h 37m
New Moon, 2% of the Moon is Illuminated
Oct 29
New Moon
Nov 4
First Quarter
Nov 12
Full
Nov 19
Last Quarter
Nov 26
New

Hourly Weather History & Observations

Time (CET) Temp. Windchill Dew Point Humidity Pressure Visibility Wind Dir Wind Speed Gust Speed Precip Events Conditions
12:20 AM 30.2 °F 26.7 °F 26.6 °F 86% 30.12 in 6.2 mi Variable 3.5 mph - N/A   Overcast
12:50 AM 30.2 °F 24.3 °F 26.6 °F 86% 30.12 in 6.2 mi WNW 5.8 mph - N/A   Overcast
1:20 AM 30.2 °F 25.4 °F 30.2 °F 100% 30.15 in 1.3 mi Variable 4.6 mph - N/A Snow Light Snow
1:50 AM 30.2 °F - 30.2 °F 100% 30.15 in 3.7 mi Variable 2.3 mph - N/A Snow Light Snow
2:20 AM 30.2 °F 25.4 °F 28.4 °F 93% 30.15 in - WNW 4.6 mph - N/A Rain , Snow Light Freezing Rain
3:20 AM 30.2 °F 22.6 °F 30.2 °F 100% 30.15 in - West 8.1 mph - N/A Snow Light Snow Showers
3:50 AM 32.0 °F 23.0 °F 30.2 °F 93% 30.12 in - WNW 11.5 mph - N/A Snow Light Snow Showers
4:20 AM 32.0 °F 26.4 °F 28.4 °F 87% 30.15 in 6.2 mi WNW 5.8 mph - N/A   Overcast
4:50 AM 30.2 °F 19.8 °F 28.4 °F 93% 30.15 in 6.2 mi WNW 13.8 mph - N/A Snow Light Snow Showers
5:20 AM 32.0 °F 22.1 °F 28.4 °F 87% 30.15 in 6.2 mi NW 13.8 mph - N/A Snow Light Snow Showers
5:50 AM 32.0 °F 21.6 °F 30.2 °F 93% 30.15 in 5.0 mi WNW 15.0 mph - N/A Snow Light Snow Showers
6:20 AM 32.0 °F 21.6 °F 28.4 °F 87% 30.15 in 6.2 mi WNW 15.0 mph - N/A   Mostly Cloudy
6:50 AM 32.0 °F 21.2 °F 28.4 °F 87% 30.15 in - WNW 16.1 mph - N/A Snow Light Snow Showers
7:20 AM 32.0 °F 22.5 °F 28.4 °F 87% 30.15 in - West 12.7 mph - N/A Rain Light Rain Showers
7:50 AM 32.0 °F 22.5 °F 28.4 °F 87% 30.15 in 6.2 mi WNW 12.7 mph - N/A Snow Light Snow Showers
8:20 AM 32.0 °F 24.2 °F 30.2 °F 93% 30.15 in 5.0 mi West 9.2 mph - N/A Snow Light Snow Showers
8:50 AM 32.0 °F 23.0 °F 28.4 °F 87% 30.18 in 6.2 mi West 11.5 mph - N/A Snow Light Snow Showers
9:20 AM 32.0 °F 26.4 °F 30.2 °F 93% 30.18 in 6.2 mi West 5.8 mph - N/A Snow Light Snow Showers
9:50 AM 32.0 °F 25.6 °F 28.4 °F 87% 30.18 in 6.2 mi West 6.9 mph - N/A   Mostly Cloudy
10:20 AM 32.0 °F 28.7 °F 30.2 °F 93% 30.18 in 5.6 mi Variable 3.5 mph - N/A Snow Light Snow Showers
11:20 AM 32.0 °F 23.0 °F 28.4 °F 87% 30.18 in 6.2 mi WNW 11.5 mph - N/A Snow Light Snow Showers
11:50 AM 33.8 °F 26.4 °F 30.2 °F 87% 30.21 in 6.2 mi WNW 9.2 mph - N/A Snow Light Snow Showers
12:20 PM 33.8 °F 27.7 °F 30.2 °F 87% 30.21 in 6.2 mi WNW 6.9 mph - N/A Snow Light Snow Showers
12:50 PM 33.8 °F 25.3 °F 30.2 °F 87% 30.21 in 6.2 mi NW 11.5 mph - N/A   Mostly Cloudy
1:20 PM 33.8 °F 26.4 °F 30.2 °F 87% 30.21 in 6.2 mi West 9.2 mph - N/A   Mostly Cloudy
1:50 PM 35.6 °F 29.9 °F 30.2 °F 81% 30.21 in 6.2 mi West 6.9 mph - N/A   Mostly Cloudy
2:20 PM 33.8 °F 25.3 °F 28.4 °F 81% 30.21 in 6.2 mi WNW 11.5 mph - N/A   Mostly Cloudy
2:50 PM 33.8 °F 24.8 °F 30.2 °F 87% 30.21 in 6.2 mi WNW 12.7 mph - N/A   Mostly Cloudy
3:20 PM 32.0 °F 23.0 °F 28.4 °F 87% 30.21 in 6.2 mi WNW 11.5 mph - N/A   Mostly Cloudy
3:50 PM 32.0 °F 23.6 °F 28.4 °F 87% 30.21 in 6.2 mi West 10.4 mph - N/A   Scattered Clouds
4:20 PM 30.2 °F 21.9 °F 28.4 °F 93% 30.21 in 6.2 mi West 9.2 mph - N/A   Scattered Clouds
4:50 PM 30.2 °F 21.9 °F 28.4 °F 93% 30.21 in 6.2 mi West 9.2 mph - N/A Snow Light Snow Showers
6:20 PM 32.0 °F 24.2 °F 30.2 °F 93% 30.21 in 6.2 mi West 9.2 mph - N/A Rain Light Rain Showers
6:50 PM 32.0 °F 22.5 °F 30.2 °F 93% 30.21 in 6.2 mi West 12.7 mph - N/A Snow Light Snow Showers
7:20 PM 30.2 °F 22.6 °F 28.4 °F 93% 30.21 in 6.2 mi West 8.1 mph - N/A   Mostly Cloudy
7:50 PM 32.0 °F 23.6 °F 30.2 °F 93% 30.21 in 6.2 mi WNW 10.4 mph - N/A Snow Light Snow Showers
8:20 PM 32.0 °F 24.2 °F 30.2 °F 93% 30.21 in 6.2 mi WNW 9.2 mph - N/A Snow Light Snow Showers
8:50 PM 32.0 °F 25.6 °F 30.2 °F 93% 30.21 in 6.2 mi WSW 6.9 mph - N/A Snow Light Snow Showers
9:20 PM 32.0 °F 24.2 °F 32.0 °F 100% 30.21 in - WSW 9.2 mph - N/A Rain , Snow Light Rain Showers
9:50 PM 32.0 °F 28.7 °F 30.2 °F 93% 30.21 in 6.2 mi West 3.5 mph - N/A   Overcast
10:20 PM 32.0 °F 27.5 °F 32.0 °F 100% 30.21 in 6.2 mi WSW 4.6 mph - N/A Rain Light Rain Showers
10:50 PM 30.2 °F 25.4 °F 30.2 °F 100% 30.21 in 1.6 mi WNW 4.6 mph - N/A Snow Light Snow Showers
11:20 PM 30.2 °F 25.4 °F 30.2 °F 100% 30.21 in 6.2 mi WSW 4.6 mph - N/A   Mostly Cloudy
11:50 PM 28.4 °F 23.3 °F 28.4 °F 100% 30.21 in 6.2 mi SW 4.6 mph - N/A   Mostly Cloudy